Bradshaw AFB, HI

2:57 PM HST on June 26, 2017 (GMT -1000)
Bradshaw Army Air Field

Weather History for PHSF - April, 2014

Change the Weather History Date:

Thursday, April 24, 2014

  Actual Average Record
Temperature  
Mean Temperature 58 °F -  
Max Temperature 71 °F 65 °F 74 °F (2016)
Min Temperature 44 °F 46 °F 41 °F (1999)
Degree Days  
Heating Degree Days 8    
Growing Degree Days 8 (Base 50)    
Moisture  
Dew Point 48 °F    
Average Humidity 67    
Maximum Humidity 100    
Minimum Humidity 35    
Precipitation  
Precipitation 0.00 in - - ()
Sea Level Pressure  
Sea Level Pressure 30.22 in    
Wind  
Wind Speed 9 mph (SE)    
Max Wind Speed 20 mph    
Max Gust Speed 41 mph    
Visibility 8 miles    
Events Fog , Rain    
Averages and records for this station are not official NWS values.
T = Trace of Precipitation, MM = Missing Value Source: NWS Daily Summary

Daily Weather History Graph

Daily Weather History Graph

Search for Another Location

Airport or City:

Trip Planner

Search our weather history database for the weather conditions in past years. The results will help you decide how hot, cold, wet, or windy it might be!

Date:

Astronomy

Apr. 24, 2014 Rise Set
Actual Time 5:57 AM HST 6:43 PM HST
Civil Twilight 5:34 AM HST 7:05 PM HST
Nautical Twilight 5:08 AM HST 7:32 PM HST
Astronomical Twilight 4:41 AM HST 7:59 PM HST
Moon 2:36 AM HST (4/24) 2:46 PM HST (4/24)
Length of Visible Light 13h 31m
Length of Day
12h 45m
Waning Crescent, 22% of the Moon is Illuminated
Apr 24
Waning Crescent
Apr 28
New
May 6
First Quarter
May 14
Full
May 21
Last Quarter

Hourly Weather History & Observations

Time (HST) Temp. Windchill Dew Point Humidity Pressure Visibility Wind Dir Wind Speed Gust Speed Precip Events Conditions
12:56 AM 47.5 °F - 41.0 °F 78% 30.02 in 10.0 mi ESE 10.4 mph 18.4 mph N/A   Clear
1:56 AM 46.0 °F - 39.2 °F 77% 30.02 in 10.0 mi ESE 2.3 mph - N/A   Clear
2:56 AM 48.4 °F - 43.2 °F 82% 29.99 in 11.0 mi ESE 9.2 mph 18.4 mph N/A   Clear
3:56 AM 46.4 °F 42.4 °F 39.6 °F 77% 30.00 in 11.0 mi ESE 8.1 mph - N/A   Clear
4:56 AM 48.4 °F - 40.6 °F 75% 29.99 in 11.0 mi ESE 8.1 mph 17.3 mph N/A   Clear
5:56 AM 44.1 °F 40.1 °F 38.1 °F 80% 30.05 in 11.0 mi ESE 6.9 mph - N/A   Clear
6:56 AM 48.6 °F - 37.2 °F 65% 30.07 in 11.0 mi ESE 5.8 mph - N/A   Clear
8:56 AM 61.2 °F - 43.3 °F 52% 30.37 in 11.0 mi ENE 3.5 mph 19.6 mph N/A   Clear
9:56 AM 64.0 °F - 47.1 °F 54% 30.08 in 9.0 mi SSW 8.1 mph 13.8 mph N/A   Clear
10:56 AM 67.3 °F - 48.2 °F 50% 30.06 in 8.0 mi South 8.1 mph 18.4 mph N/A   Clear
11:56 AM 68.7 °F - 40.3 °F 35% 30.04 in 8.0 mi South 6.9 mph 23.0 mph N/A   Partly Cloudy
12:00 PM 69.8 °F - 41.0 °F 35% 30.37 in 8.0 mi ESE 12.7 mph 24.2 mph N/A   Clear
12:09 PM 69.8 °F - 46.4 °F 43% 30.35 in 4.0 mi SSW 16.1 mph 41.4 mph N/A   Clear
12:23 PM 69.8 °F - 44.6 °F 40% 30.37 in 12.0 mi South 11.5 mph 21.9 mph N/A   Partly Cloudy
12:53 PM 71.6 °F - 48.2 °F 43% 30.35 in 10.0 mi SE 16.1 mph 31.1 mph N/A   Clear
12:56 PM 69.8 °F - 48.4 °F 46% 30.02 in 10.0 mi SE 16.1 mph 31.1 mph N/A   Clear
1:27 PM 69.8 °F - 50.0 °F 49% 30.34 in 12.0 mi South 12.7 mph 28.8 mph N/A   Partly Cloudy
1:31 PM 69.8 °F - 50.0 °F 49% 30.34 in 12.0 mi South 12.7 mph 29.9 mph N/A   Partly Cloudy
1:33 PM 69.8 °F - 46.4 °F 43% 30.33 in 11.0 mi SE 19.6 mph 29.9 mph N/A   Partly Cloudy
1:56 PM 67.3 °F - 49.5 °F 53% 30.01 in 12.0 mi SE 16.1 mph 34.5 mph N/A   Partly Cloudy
2:23 PM 66.2 °F - 50.0 °F 56% 30.32 in 11.0 mi South 12.7 mph 31.1 mph N/A   Partly Cloudy
2:56 PM 70.0 °F - 47.8 °F 45% 29.97 in 9.0 mi South 13.8 mph 27.6 mph N/A   Partly Cloudy
3:01 PM 69.8 °F - 48.2 °F 46% 30.29 in 3.0 mi South 16.1 mph 31.1 mph N/A   Partly Cloudy
3:03 PM 69.8 °F - 48.2 °F 46% 30.29 in 2.8 mi SSE 16.1 mph 31.1 mph N/A   Haze
3:08 PM 69.8 °F - 48.2 °F 46% 30.30 in 4.0 mi SSE 12.7 mph 31.1 mph N/A   Partly Cloudy
3:24 PM 69.8 °F - 46.4 °F 43% 30.29 in 9.0 mi ESE 15.0 mph 29.9 mph N/A   Clear
3:27 PM 68.0 °F - 48.2 °F 49% 30.29 in 7.0 mi South 17.3 mph 27.6 mph N/A   Clear
3:34 PM 66.2 °F - 50.0 °F 56% 30.29 in 3.0 mi SE 17.3 mph 35.7 mph N/A   Clear
3:40 PM 66.2 °F - 51.8 °F 60% 30.30 in 5.0 mi South 11.5 mph 35.7 mph N/A   Clear
3:56 PM 64.4 °F - 50.7 °F 61% 29.99 in 11.0 mi SSE 13.8 mph 32.2 mph N/A   Clear
4:02 PM 66.2 °F - 50.0 °F 56% 30.29 in 4.0 mi South 17.3 mph 32.2 mph N/A   Clear
4:08 PM 64.4 °F - 50.0 °F 59% 30.30 in 4.0 mi South 15.0 mph 29.9 mph N/A   Clear
4:32 PM 64.4 °F - 50.0 °F 59% 30.30 in 10.0 mi SE 13.8 mph 28.8 mph N/A   Clear
4:56 PM 63.5 °F - 53.8 °F 71% 29.99 in 12.0 mi West 12.7 mph 20.7 mph N/A   Partly Cloudy
5:56 PM 59.5 °F - 51.6 °F 75% 30.32 in 12.0 mi SE 13.8 mph 24.2 mph N/A   Partly Cloudy
6:36 PM 59.0 °F - 51.8 °F 77% 30.35 in 11.0 mi SE 8.1 mph 19.6 mph N/A   Mostly Cloudy
6:41 PM 59.0 °F - 51.8 °F 77% 30.35 in 10.0 mi SSW 2.3 mph 15.0 mph N/A   Mostly Cloudy
6:56 PM 58.3 °F - 51.6 °F 78% 30.06 in 10.0 mi ESE 3.5 mph - N/A   Scattered Clouds
7:01 PM 59.0 °F - 51.8 °F 77% 30.35 in 10.0 mi North 3.5 mph - N/A   Mostly Cloudy
7:06 PM 59.0 °F - 51.8 °F 77% 30.35 in 10.0 mi WNW 1.2 mph - N/A   Scattered Clouds
7:11 PM 59.0 °F - 53.6 °F 82% 30.36 in 10.0 mi West 4.6 mph - N/A   Mostly Cloudy
7:31 PM 57.2 °F - 51.8 °F 82% 30.36 in 12.0 mi SE 9.2 mph 19.6 mph N/A   Scattered Clouds
7:56 PM 56.7 °F - 50.5 °F 80% 30.04 in 9.0 mi SE 3.5 mph 15.0 mph N/A   Partly Cloudy
8:56 PM 54.7 °F - 50.0 °F 84% 30.05 in 11.0 mi ESE 3.5 mph - N/A   Clear
9:56 PM 52.7 °F - 48.0 °F 84% 30.07 in 10.0 mi NW 1.2 mph - N/A   Clear
10:21 PM 51.8 °F - 51.8 °F 100% 30.40 in 0.4 mi ESE 2.3 mph - N/A Fog Fog
10:24 PM 51.8 °F - 51.8 °F 100% 30.40 in 0.2 mi ESE 1.2 mph - N/A Fog Light Drizzle
10:44 PM 51.8 °F - 50.0 °F 94% 30.40 in 2.8 mi NNE 1.2 mph - N/A Fog , Rain Light Rain Showers
10:49 PM 51.8 °F - 50.0 °F 94% 30.40 in 2.2 mi South 1.2 mph - N/A Fog , Rain Light Rain Showers
10:52 PM 51.8 °F - 50.0 °F 94% 30.40 in 1.1 mi North 4.6 mph - N/A Fog Patches of Fog
10:56 PM 51.3 °F - 50.7 °F 98% 30.07 in 0.9 mi North 4.6 mph - N/A Fog Patches of Fog
11:01 PM 51.8 °F - 51.8 °F 100% 30.39 in 1.1 mi North 3.5 mph - N/A Fog Fog
11:06 PM 50.0 °F - 48.2 °F 94% 30.40 in 5.0 mi SE 4.6 mph - N/A   Partly Cloudy
11:56 PM 50.4 °F - 47.1 °F 89% 30.04 in 10.0 mi NNE 1.2 mph - N/A   Partly Cloudy